カタログに戻る

CZ-3B DEB

運用中HEO
NORAD 42464·DEBRIS·🇨🇳 China

打ち上げ Sep 4, 2010 から Xichang Satellite Launch Center

Loading…

次のパス (今後24時間)

TLE

最新Source: Space-Track

元期: Sep 14, 2026, 08:57 UTC

1 42464U 10042AF  26257.37299087 -.00000144  00000-0  00000-0 0  9994
2 42464  23.9171 251.8806 7357419  77.9959 349.2619  1.82437234 84153

AllMySatでCZ-3B DEBをリアルタイム追跡

Download on the App Store